CAPE
1195 1990 1710 1368 117 4 17 116 287 220 146 296 0 300 270 266 216 439 0 0 12 113 228 597 588 568 758 809 1145 1669 1835 1856 1794 1779 1606 1977 2049 1939 1460 2133 2007 1944 1910 1526 1373 1348 1307 1252 1199
1364 1655 1883 805 6 0 2 38 96 178 293 137 120 283 461 672 523 135 0 0 22 127 146 350 665 755 876 829 1020 1073 1194 1317 1441 1533 1745 1743 1717 1530 2157 1995 1795 1987 1767 1434 1289 1802 1206 1216 1190
935 1168 909 19 0 0 2 0 145 390 236 246 279 345 492 672 437 0 0 0 35 88 131 475 876 1004 1018 956 948 989 976 1019 1080 1245 1467 1612 1559 1608 1236 1821 1784 1808 1569 1830 1275 1675 1482 1250 1266
1229 1042 414 23 2 6 2 10 341 427 357 83 27 97 122 426 53 9 0 0 7 74 102 527 1038 1016 1027 1091 1019 1015 981 855 830 960 1323 1619 1442 1363 1324 1447 1582 1543 1417 1474 1421 1322 1631 1739 1739
575 360 74 15 0 34 118 331 542 503 435 331 114 0 125 282 98 8 0 0 2 20 110 230 1060 1021 1057 1135 1130 1064 1031 938 813 767 1004 1425 1466 1158 1226 1483 1473 1657 1405 1778 1755 1266 1344 1385 1658
318 253 11 10 43 44 241 545 683 489 523 99 0 2 246 141 89 4 0 0 0 0 23 270 1013 1077 1120 1270 1325 1248 1186 1053 779 638 633 911 1184 1114 958 1243 1149 1439 1552 1088 1637 1677 1660 1287 1390
79 19 18 53 177 205 209 631 638 625 529 224 268 97 144 69 40 19 0 0 0 0 44 139 247 747 1403 1667 1691 1424 1355 1194 915 622 412 620 986 1027 1285 1069 1099 1206 1350 1333 1303 1112 1462 1460 1365
57 68 3 2 2 350 512 657 912 756 500 483 621 272 20 233 30 34 1 0 0 0 91 191 206 443 844 1101 1090 1295 945 928 1017 1008 534 482 298 438 877 657 930 1003 1121 1111 1101 1140 1124 1179 1307
0 13 4 6 4 450 777 637 968 847 499 796 687 342 307 391 47 21 1 19 21 40 219 161 353 737 987 868 1218 1021 1202 949 840 884 1104 655 302 449 428 526 701 1031 1121 1056 913 955 966 1029 983
0 4 1 72 154 127 558 716 764 736 703 1064 918 717 781 331 102 1 2 23 44 74 219 224 395 648 863 593 767 1229 1019 943 824 802 105 182 378 507 244 118 160 699 1022 956 1045 906 881 524 376
0 5 0 165 295 323 695 692 620 576 419 747 1030 498 568 382 110 0 0 0 31 66 214 449 623 824 719 694 534 376 329 676 557 130 114 377 526 682 515 492 332 648 538 384 532 698 395 434 453
0 2 82 552 726 563 677 593 251 426 379 715 805 602 638 570 188 69 50 43 42 138 351 474 754 876 770 592 337 264 353 392 326 41 130 414 571 629 428 305 398 418 289 474 401 362 624 764 696
0 64 476 667 764 735 819 570 318 436 473 757 770 750 912 767 616 311 184 193 202 347 575 641 838 1104 953 751 313 221 316 537 428 176 229 296 618 396 542 242 164 417 492 404 281 330 519 582 782
68 450 756 796 962 946 836 713 518 618 564 707 835 849 964 1068 913 748 470 437 554 684 845 892 1137 1096 1037 759 481 343 399 735 742 399 551 268 362 218 96 176 307 609 744 639 794 675 789 747 797
418 688 880 1023 1123 1162 934 1060 636 698 736 730 762 802 898 1086 1183 1172 1226 1031 928 946 1066 1009 1026 908 1023 643 527 603 898 893 1054 416 199 225 233 314 194 60 124 295 729 264 642 783 882 938 719
70 204 262 881 1091 1240 743 990 1136 913 783 867 915 1016 1066 1187 1241 1280 1315 1329 1361 1202 1295 1347 592 584 689 356 613 935 1234 1392 1412 1470 1036 643 458 824 1084 325 134 232 103 345 603 982 1067 1088 1044
0 69 8 498 1020 1195 828 850 1348 1359 1132 963 926 1038 1119 1256 1370 1375 1361 1363 1387 1343 1106 1376 1012 708 739 752 803 1155 1398 1399 1287 1315 1255 1319 1640 1540 1659 1156 1185 995 805 671 1052 1278 1149 712 804
12 15 0 5 598 744 769 609 1439 1359 1408 1363 1296 1225 1211 1207 1337 1327 1416 1373 1357 1555 1285 1386 1086 740 1180 1195 1487 1371 1372 1360 1489 1302 1252 1676 1488 1787 1947 1161 1146 1363 1130 993 1000 867 987 595 613
0 0 0 89 524 519 535 586 1177 1371 1387 1381 1389 1236 1229 1116 1150 1192 1107 1267 1361 1508 1638 1339 1351 1388 1498 1557 1407 1350 1280 1301 1282 1230 1360 1827 1474 1312 1945 1265 1275 1477 995 949 953 1150 1235 880 747
0 0 13 441 585 531 706 543 961 1145 1249 1354 1523 1177 1022 1010 1156 1243 1071 1129 1232 1437 1642 1623 1570 1616 1682 1626 1654 1256 1232 1202 1351 1183 1325 1497 1350 1438 1921 2025 1550 898 888 1215 1536 1138 525 364 512
11 0 1 140 694 526 522 373 744 760 910 1055 1075 814 714 605 734 861 958 1167 1255 1403 1620 1606 1748 1760 1836 1655 1802 1936 1716 1672 1420 1336 1110 1063 1432 1516 1391 1545 1677 1369 1378 766 1110 1151 1304 485 336
17 0 0 225 441 180 448 47 625 652 890 1012 1041 832 669 367 556 652 902 1262 1226 1477 1602 1653 1778 1804 2041 2122 1817 1792 1557 1467 1465 1337 1456 1687 1846 1713 1757 1897 2055 2026 1570 1090 1254 1281 1100 1247 682
0 0 2 250 276 73 261 22 360 444 885 1329 1282 1268 1039 753 620 564 876 1440 1410 1320 1463 1606 1732 1243 1584 1856 1815 1650 1749 1615 1603 1698 1690 1886 1968 1868 1661 1557 1903 2159 2170 1604 1500 1392 1492 1003 1103
0 5 85 180 13 1 47 4 2 323 863 803 418 817 952 358 398 659 865 1087 1694 1523 1439 1353 1563 991 1636 1701 1839 1431 1619 1379 1431 1653 1823 1519 1451 1520 1473 1632 1458 1740 2040 1988 1549 1626 1527 1538 1145
0 16 44 28 20 4 85 0 0 472 975 551 684 817 415 999 312 980 1357 1228 1557 1983 1768 1434 1768 1960 1991 2040 1944 1599 959 1356 1765 1756 1468 1616 1544 1465 1660 1788 1973 1863 1942 2079 2057 1525 1357 1650 1095
0 4 17 9 4 9 115 0 220 235 859 828 817 1431 1332 1235 791 1414 1775 2046 2206 1836 1802 2147 2349 2353 2206 2038 1687 1760 1845 1734 1634 1879 2036 1844 1879 1976 1853 1986 1995 2020 1869 1618 1763 1801 1677 1577 1540
0 0 0 0 0 0 0 43 273 581 892 1446 1248 1140 1370 1309 1444 1689 1630 1807 1899 2094 1966 1817 1735 1744 1685 1486 1331 889 667 922 916 987 1093 1098 1169 1219 1358 1548 1716 1689 1373 1058 1488 1675 1180 1540 1709
0 0 0 0 0 5 64 184 120 721 924 1460 1499 1477 1422 1534 1182 427 169 148 173 325 531 499 467 346 298 222 176 101 47 50 111 202 180 160 248 400 617 927 993 1077 1205 1147 1263 1744 1840 1537 1822
0 0 0 7 0 19 96 138 478 568 785 1533 1503 1570 1643 1289 387 89 36 0 0 0 0 0 0 0 0 0 0 0 0 0 0 0 0 0 0 0 16 88 196 412 576 792 1141 1222 1418 1636 1750
0 0 0 1 76 69 10 15 380 609 655 1377 1489 1931 1838 643 121 13 0 0 0 0 0 0 0 0 0 0 0 0 0 0 0 0 0 0 0 0 0 0 0 0 7 154 315 811 1064 1302 1482
CIN
-346 -205 -200 -161 -48 -4 -4 -16 -2 -2 -10 -3 -1 -2 -3 -3 -6 -2 0 0 -75 -31 -28 -5 -15 -15 -14 -21 -4 0 0 0 0 0 -2 0 0 0 -4 0 0 0 0 0 -1 0 0 0 0
-205 -252 -167 -32 -7 0 -3 -36 -13 -4 -11 -17 -28 -4 -1 -3 -35 -70 0 0 -77 -25 -34 -20 -14 -9 -5 -12 -4 -1 0 0 0 0 0 -1 0 -4 0 0 0 0 0 0 0 0 0 0 0
-283 -242 -7 -33 0 0 -1 0 -10 -8 -11 -3 -10 -10 -3 -6 -46 0 0 0 -47 -24 -16 -17 -9 -5 -2 -3 -5 -6 -8 -6 -9 -2 0 0 0 -1 -7 -1 -3 0 -3 0 0 0 0 0 0
-126 -52 -18 -3 -2 -111 -1 -65 -3 -1 -4 -21 -74 -37 -106 -63 -88 -54 0 0 -10 -19 -6 -49 -9 -9 -6 -1 -2 -4 -6 -14 -17 -10 0 -1 -1 -3 -2 -4 -3 -5 -6 0 0 0 0 0 0
-105 -20 -61 -102 0 -103 -36 -3 -1 -1 -3 -2 -23 0 -81 -70 -93 -83 0 0 -12 -41 -13 -47 -11 -8 -5 -2 -4 -3 0 -5 -13 -15 -1 0 -1 -1 -2 -2 0 0 -2 -2 -2 0 -1 0 0
-29 -22 -3 -3 -63 -102 -10 -2 -1 -1 -2 -49 0 -40 -67 -101 -99 -122 0 0 0 0 -24 -22 -10 -7 -3 0 0 0 0 -2 -18 -21 -17 -2 -1 -2 -3 -1 -6 0 0 -8 -3 -1 -2 0 0
-98 -106 -97 -63 -14 -21 -9 -5 -2 -2 -2 -12 -13 -46 -85 -109 -121 -90 0 0 0 0 -21 -32 -33 -13 0 -1 -1 -1 0 -1 -8 -21 -31 -16 0 0 -1 -3 -1 -1 0 0 -1 -5 -2 -1 0
-100 -59 -3 -2 0 -7 -12 -2 0 -2 -2 -7 -5 -20 -76 -66 -139 -91 -36 0 0 0 -25 -7 -20 -3 -1 -1 -5 -1 -6 -4 -3 -1 -16 -17 -31 -15 -2 -11 -6 -2 -1 0 0 -1 0 0 0
0 -2 -2 -2 -2 -6 -7 -2 -22 -5 -6 -9 -20 -8 -23 -75 -148 -123 -20 -96 -106 -77 -35 -7 -2 -1 0 -1 -3 -5 -2 -4 -3 -2 0 -4 -2 0 -1 -13 -9 -1 0 0 0 0 0 0 -3
-1 -2 -1 -63 -27 -32 -4 -9 -35 -11 -3 -3 -8 -22 -37 -72 -94 -19 -24 -74 -81 -68 -43 -11 -2 -1 -1 0 -1 0 -1 -2 -8 -4 -26 -26 -1 -1 -5 -22 -37 -9 -1 -3 0 0 0 -22 -2
0 -5 0 -31 -11 -15 -7 -12 -37 -9 -13 -3 -1 -19 -36 -54 -67 0 0 0 -43 -36 -18 -18 -5 -1 0 -1 -1 -2 -5 -7 -15 -42 -19 0 -1 -1 -1 -1 -1 0 -5 -2 -7 -4 -7 -1 -2
0 -3 -21 -16 -20 -21 -20 -23 -46 -67 -88 -54 -6 -15 -28 -27 -34 -38 -35 -24 -33 -30 -14 -7 -2 -1 -1 0 -1 -13 -1 -2 -18 -58 -32 0 -3 -1 -1 -2 -4 0 -1 0 -1 0 0 0 -1
0 -21 -30 -35 -22 -23 -37 -36 -54 -79 -99 -63 -26 -11 -11 -5 -9 -16 -24 -29 -23 -15 -8 -1 -1 -5 -2 -3 -2 -6 -1 -1 -12 -46 -27 -16 -1 -20 -6 -11 -20 -1 -1 0 -3 -1 0 -1 -1
-26 -25 -27 -28 -21 -20 -37 -47 -39 -67 -82 -70 -36 -4 -3 -1 -2 -11 -25 -22 -14 -12 -2 0 -9 -8 -11 -12 -20 -10 -1 -1 -6 -25 -20 -21 -24 -46 -56 -36 -18 0 0 -1 0 -1 0 -3 -1
-13 -22 -32 -32 -31 -30 -31 -24 -25 -63 -60 -58 -34 -20 -4 -1 -3 -3 -1 -4 -4 -5 -6 -1 -12 -11 -18 -28 -27 -9 -1 -1 -3 -21 -55 -30 -50 -26 -46 -81 -77 -38 -6 -52 -8 0 0 0 -1
-18 -5 -3 -40 -34 -53 -42 -7 -45 -62 -48 -33 -14 -14 -15 -6 -2 -3 -1 -1 -2 -3 -22 -17 -20 -13 -27 -29 -14 -2 -1 0 0 0 -10 -2 -9 -2 -2 -47 -75 -57 -110 -42 -12 -1 -1 0 -1
0 -7 -2 -16 -43 -41 -28 -11 -52 -54 -44 -28 -13 -4 -3 -2 -4 -3 -5 -5 -2 -46 -54 -20 -22 -15 -3 -23 -11 -2 0 -2 -1 0 0 -1 -4 -3 -4 -8 -3 -26 -1 -41 -4 0 0 -17 -1
-3 -5 0 -2 -33 -50 -28 -17 -56 -68 -40 -20 -16 -7 -10 -5 -3 -1 -13 -6 -4 -15 -62 -18 -28 -56 -17 -5 -6 -1 -1 -2 -1 0 -1 -6 -1 -6 -8 -1 -3 -1 -4 -7 0 -11 -4 -23 -5
0 0 0 -22 -71 -48 -21 -17 -49 -64 -59 -39 -36 -32 -35 -36 -35 -44 -32 -19 -12 -21 -36 -33 -26 -32 -17 -6 -8 -8 -12 -1 -1 -2 0 -14 -16 -26 -11 -3 -1 -2 -2 -8 -5 -1 -1 -3 -5
0 0 -7 -48 -91 -51 -34 -25 -52 -83 -64 -39 -52 -92 -73 -52 -39 -47 -52 -30 -18 -25 -40 -43 -51 -56 -41 -6 -3 -2 -1 -2 -1 -1 -4 -5 -7 -15 -9 -6 -1 -34 -5 -1 -2 -1 -3 -2 -2
-3 0 -8 -10 -74 -66 -38 -18 -46 -122 -121 -103 -122 -132 -98 -84 -76 -46 -46 -22 -23 -36 -66 -74 -54 -50 -44 -24 -3 -2 -2 -6 -2 -5 -1 -5 -15 -12 -39 -32 -29 -41 -30 -13 -12 -2 0 -2 -3
-5 0 0 -35 -19 -3 -39 -5 -12 -67 -107 -118 -120 -122 -109 -137 -114 -76 -44 -42 -31 -32 -59 -95 -88 -45 -16 -14 -5 -5 -3 -7 -2 -3 0 -2 -1 -6 -11 -15 -18 -22 -15 -17 -2 -2 -7 -3 -2
-2 0 -3 -26 -6 -9 -17 -22 -14 -116 -70 -84 -108 -61 -77 -119 -113 -95 -73 -64 -32 -63 -64 -71 -118 -118 -79 -46 -23 -9 -1 -4 -2 -2 -1 0 -5 -12 -10 -20 -15 -8 -5 -11 -26 -18 -8 -12 -3
0 -36 -38 -21 -32 -2 -11 -11 -4 -7 -29 -177 -196 -92 -98 -156 -154 -126 -121 -106 -51 -67 -86 -125 -121 -172 -88 -53 -17 -55 -22 -13 -3 -2 -1 -2 -2 -2 -1 -1 -5 -9 -3 -2 -11 -9 -1 -2 -4
0 -6 -9 -8 -11 -3 -36 0 0 -69 -105 -163 -113 -85 -124 -89 -136 -105 -86 -91 -70 -55 -47 -110 -104 -62 -29 -9 -16 -38 -67 -34 -9 -7 -3 -4 -2 -1 -4 -1 -1 -2 0 -5 -1 -14 -24 -7 -18
0 -6 -5 -3 -3 -4 -76 0 -8 -119 -157 -150 -99 -57 -96 -89 -83 -32 -24 -15 -14 -35 -52 -45 -34 -20 -5 -4 -31 -32 -15 -6 -26 -9 -4 -4 -2 -2 -8 -1 0 -1 -1 -3 -1 -3 -2 -3 -4
0 0 0 0 0 0 0 -11 -19 -154 -151 -119 -62 -76 -68 -62 -41 -22 -26 -31 -42 -23 -37 -64 -69 -43 -44 -49 -52 -106 -136 -93 -84 -60 -41 -35 -33 -22 -12 -3 -9 -9 -10 -19 -4 -1 -2 -3 -2
0 0 0 0 0 -4 -5 -10 -3 -64 -97 -118 -55 -44 -42 -37 -69 -174 -206 -219 -223 -219 -215 -229 -241 -250 -242 -241 -212 -246 -301 -276 -247 -186 -191 -201 -175 -114 -49 -13 -11 -8 0 -2 -6 0 0 -3 -1
0 0 0 -4 0 -8 -8 -4 -48 -44 -48 -88 -50 -51 -30 -65 -192 -267 -326 -120 0 0 0 0 0 0 0 0 0 0 0 0 0 0 0 0 0 0 -114 -303 -198 -85 -48 -15 0 0 0 0 -1
0 0 0 -5 -3 -5 -10 -8 -105 -72 -45 -41 -50 -19 -15 -134 -217 -262 -7 0 0 0 0 0 0 0 0 0 0 0 0 0 0 0 0 0 0 0 0 -1 0 0 -33 -197 -85 -4 -1 0 0
Wind_Speed
20 19 16 16 20 27 29 26 22 23 22 19 22 16 18 10 12 9 25 27 30 28 29 29 28 28 28 28 27 25 27 26 22 20 20 17 18 20 17 14 20 12 10 8 8 13 17 22 24
19 18 17 15 26 30 29 23 25 23 23 25 23 20 18 16 10 23 26 28 31 27 30 29 28 28 27 27 27 26 25 24 20 16 13 14 17 15 14 10 7 11 13 17 11 12 15 19 20
17 15 15 21 31 30 30 26 26 25 23 20 20 18 16 15 22 28 24 29 31 27 29 27 28 28 27 26 26 25 21 18 15 14 14 13 15 15 15 12 10 7 12 19 21 13 18 16 14
15 19 16 26 31 28 30 27 26 24 23 21 22 22 22 21 26 26 29 29 30 27 28 26 27 27 26 25 24 24 21 18 15 13 11 10 14 15 14 15 20 8 23 23 22 21 9 5 11
15 15 26 28 29 27 26 25 22 22 22 20 17 22 20 23 24 29 29 29 29 27 24 26 25 25 24 23 23 22 21 19 16 14 12 10 12 16 18 17 14 19 18 21 21 22 22 11 13
17 15 23 25 27 25 24 21 18 22 22 24 26 25 22 24 27 29 28 27 27 27 24 23 24 23 22 22 21 21 19 19 17 14 13 13 11 13 17 17 15 16 19 21 21 22 21 17 16
12 10 23 24 24 24 23 19 19 23 23 23 22 23 22 25 26 27 27 26 26 26 23 24 23 22 22 20 20 19 19 17 17 16 15 14 14 14 15 18 17 18 18 19 20 21 21 20 20
13 14 23 23 25 25 22 19 20 20 24 24 18 20 23 25 27 26 26 26 27 26 24 23 24 21 21 20 19 18 17 17 16 16 15 15 16 16 17 17 18 18 18 19 19 20 20 20 19
11 19 22 23 24 23 22 23 22 20 23 22 20 21 22 25 26 26 24 25 26 25 24 24 20 21 21 19 17 16 15 15 17 17 16 16 17 16 17 16 17 17 18 19 19 19 19 19 19
10 17 19 20 22 23 23 24 24 23 22 21 22 22 25 26 25 25 23 22 24 23 23 24 21 19 19 18 16 16 15 14 14 17 17 15 17 17 17 17 18 18 18 19 19 19 19 19 19
14 14 17 21 22 23 24 25 25 23 22 20 21 22 24 26 25 23 22 20 22 22 17 23 21 16 19 18 17 16 16 15 15 16 17 18 17 17 17 17 18 19 18 19 18 18 18 19 19
11 14 19 20 21 23 24 25 28 28 26 24 24 24 23 22 23 23 21 18 18 19 17 19 7 4 20 18 17 17 16 16 16 16 15 16 17 16 15 16 16 18 18 19 19 19 19 19 19
14 16 19 19 20 22 24 25 26 28 26 26 25 23 22 22 20 22 21 18 15 14 11 22 14 9 20 20 18 18 17 17 16 17 17 16 15 14 15 15 17 17 17 18 18 19 19 20 20
14 17 19 19 19 20 22 23 22 24 24 24 22 22 21 20 19 18 19 19 14 10 7 9 21 21 21 21 19 19 19 17 15 16 16 17 15 14 14 14 15 16 16 17 17 19 19 19 20
16 17 18 17 18 18 19 21 22 21 22 22 21 21 19 18 18 17 16 15 15 10 9 9 22 23 23 22 21 20 19 18 16 17 18 17 17 16 15 15 16 15 15 16 16 17 18 18 18
14 14 14 15 15 15 15 20 18 19 20 20 20 19 17 14 12 14 14 13 11 9 8 11 18 18 19 22 21 21 20 18 17 16 18 18 18 17 16 17 16 16 14 14 16 16 16 17 17
10 12 13 13 12 14 12 19 16 17 18 18 16 14 13 11 9 12 13 16 14 11 9 7 10 18 15 18 22 21 20 19 19 18 17 16 16 16 16 16 16 16 14 13 17 16 16 17 17
11 11 12 12 12 12 11 12 14 15 14 14 13 12 11 12 17 18 16 17 15 13 14 9 7 13 17 18 22 22 21 20 19 19 18 18 17 17 17 17 15 16 14 14 15 14 13 12 20
13 14 14 13 12 11 10 10 11 13 13 12 11 11 10 11 13 15 17 17 16 15 16 15 13 8 18 13 12 21 22 21 20 20 20 20 19 15 13 17 15 14 15 14 14 13 11 12 18
14 13 13 14 13 12 12 10 11 11 10 11 10 10 9 9 11 15 16 19 19 18 19 19 20 16 16 4 9 12 13 20 20 20 21 21 21 18 11 11 9 9 13 11 13 13 16 17 5
11 18 14 17 13 12 11 8 10 11 10 10 10 9 10 9 10 11 15 20 21 20 20 18 16 11 14 8 11 13 16 19 20 22 22 18 20 17 6 5 5 5 7 12 9 10 16 23 24
19 17 19 11 13 13 12 13 10 11 11 10 10 10 10 11 9 8 11 18 20 18 17 16 13 10 7 6 11 14 17 19 18 18 19 21 18 18 15 9 5 4 3 4 5 6 6 23 27
18 19 7 12 13 11 10 8 16 14 10 12 11 10 10 9 8 5 9 15 15 16 18 18 19 20 16 14 7 15 17 21 24 20 21 21 23 22 20 12 10 10 9 8 3 4 9 14 18
13 11 11 13 13 11 14 7 14 16 13 14 12 12 11 11 9 6 5 16 15 20 17 16 16 16 16 14 8 13 12 19 22 22 24 24 24 26 18 12 10 10 11 11 15 20 28 23 23
7 16 9 9 9 6 18 8 7 15 13 15 16 13 10 10 11 6 6 12 12 13 13 12 11 11 11 10 10 11 17 19 21 22 22 24 24 26 27 25 7 11 16 19 18 18 14 18 21
19 24 24 9 13 19 15 12 18 15 13 13 14 15 14 14 15 7 8 9 8 10 10 10 10 10 10 9 7 8 6 22 23 24 26 25 4 26 27 28 30 9 6 30 14 14 25 18 15
4 24 25 24 17 6 14 14 8 14 13 13 13 15 17 14 11 10 8 10 11 13 13 13 13 14 14 13 15 17 18 23 25 25 24 24 25 29 30 30 28 24 20 32 33 28 7 6 24
26 18 4 8 13 11 12 15 19 12 10 11 13 14 17 16 12 9 9 11 13 14 15 16 16 16 17 16 16 17 19 21 23 24 26 27 28 29 31 31 30 29 29 30 31 30 19 10 11
12 7 13 20 19 23 14 18 20 16 9 9 11 12 15 16 12 8 8 10 12 14 15 16 17 18 18 18 18 19 22 24 24 26 27 27 30 31 32 32 33 32 30 30 29 28 29 26 20
25 24 10 6 7 12 25 27 18 18 12 8 10 12 11 13 15 11 9 10 11 13 15 17 19 20 20 19 20 20 22 23 25 26 27 28 29 29 29 29 30 31 32 31 30 31 30 27 27
Wind_Direction
111 120 140 137 107 74 62 66 90 84 92 106 88 144 132 230 209 239 102 111 115 110 113 119 108 105 104 100 93 127 90 111 136 143 149 162 157 147 162 178 155 174 20 11 14 40 52 69 76
125 130 131 128 79 50 58 89 67 84 85 90 100 110 135 55 323 90 104 112 120 108 118 118 116 112 111 109 110 117 115 121 140 162 175 175 166 174 176 205 180 21 28 52 29 40 51 66 65
143 145 139 111 51 37 53 84 78 78 95 109 102 129 148 176 102 107 103 116 122 112 118 109 121 119 118 118 119 120 140 153 164 169 172 183 181 179 189 200 214 20 32 68 77 48 70 60 50
164 132 133 71 64 77 68 80 86 84 92 104 82 70 79 110 100 116 115 117 121 114 118 111 124 126 126 124 121 124 137 150 167 178 191 211 184 191 198 198 151 292 108 117 96 86 22 327 37
161 146 91 69 67 74 79 84 97 88 90 106 125 83 57 102 101 111 117 120 122 120 107 118 122 124 125 116 125 126 133 142 160 172 184 199 194 174 162 181 208 178 180 155 112 108 121 43 55
145 152 64 37 67 73 82 102 107 89 92 83 80 81 79 93 107 116 119 119 120 125 112 111 120 121 121 118 118 144 143 139 149 176 186 188 201 194 177 182 199 191 175 161 154 145 120 89 78
191 164 33 65 70 66 77 107 88 77 81 84 102 88 96 103 110 117 121 120 124 133 117 126 126 120 126 133 136 152 143 153 152 164 184 190 189 196 189 173 180 180 182 177 165 165 165 132 137
185 151 49 47 51 59 75 98 89 88 67 85 115 95 111 112 117 116 122 127 140 144 138 132 137 124 144 136 144 145 136 168 173 191 188 194 179 178 177 177 171 183 178 178 177 170 161 162 153
153 49 29 30 38 54 76 64 76 90 82 68 94 68 92 112 117 118 118 131 144 153 157 155 120 142 172 177 124 141 128 130 191 220 214 207 210 197 182 200 198 190 185 172 171 169 166 166 163
309 13 8 9 35 45 52 38 59 73 72 68 65 68 94 111 119 121 122 125 141 143 144 172 174 132 146 164 151 125 133 111 165 239 219 213 207 206 211 197 195 194 191 189 181 178 179 180 180
6 351 353 44 46 48 52 45 54 65 59 71 86 87 96 111 121 125 126 124 138 143 117 162 222 221 159 156 153 146 131 29 204 209 217 218 211 206 206 212 189 177 176 188 167 168 178 184 193
354 336 29 55 59 58 44 57 45 40 49 70 92 97 93 98 115 124 124 117 125 132 126 138 46 303 184 156 164 168 154 172 190 207 207 203 195 202 234 233 227 198 186 204 195 200 194 198 192
8 22 41 68 65 55 59 50 55 50 56 76 90 100 98 102 99 121 120 116 111 111 96 231 270 312 170 186 187 193 182 175 207 188 211 205 209 215 235 264 217 207 203 204 208 209 206 209 200
15 39 52 64 64 71 59 60 57 59 72 77 89 98 103 107 109 110 123 133 103 76 35 311 242 217 171 191 196 202 188 202 234 202 220 208 201 202 207 227 235 204 189 231 220 223 220 215 207
60 53 55 58 76 69 73 56 54 77 83 89 95 104 104 108 115 117 111 114 118 75 348 313 240 234 216 203 199 200 195 180 232 195 213 196 201 185 163 187 202 218 183 248 221 215 216 211 210
67 79 58 66 84 76 79 38 71 86 96 98 104 107 109 104 95 114 118 111 49 34 17 305 259 260 252 223 217 212 213 208 200 174 175 189 185 180 154 184 194 188 168 196 231 234 234 235 231
80 21 27 49 102 70 97 37 80 105 112 106 106 102 101 88 73 112 126 145 125 66 73 335 286 254 269 257 230 221 228 221 222 212 208 219 204 194 189 176 180 170 169 155 219 234 241 242 229
17 30 33 33 73 115 98 71 80 116 116 106 101 99 111 126 185 181 164 155 135 106 119 74 300 268 259 264 237 230 231 232 234 227 219 226 228 208 194 201 197 184 177 181 207 193 180 196 251
338 360 11 27 77 117 115 94 85 103 134 126 113 100 105 121 151 166 179 160 145 131 124 124 113 295 256 286 301 254 238 243 239 225 223 236 229 175 164 198 179 179 193 187 189 186 162 179 230
345 4 14 30 114 127 80 91 81 92 123 125 121 93 122 122 121 153 148 155 147 143 142 133 143 133 137 76 326 316 315 264 268 277 274 258 271 215 146 156 134 140 192 166 185 191 212 220 142
7 317 344 330 89 116 79 123 96 62 100 112 99 99 111 106 113 91 120 148 147 146 147 146 140 116 127 102 313 314 307 297 292 285 287 311 307 327 53 79 108 121 149 187 165 169 209 248 273
257 311 281 45 108 47 81 28 60 51 68 84 84 97 94 52 63 56 82 134 148 138 137 127 124 110 351 358 319 312 304 304 311 315 318 308 327 327 337 359 27 42 68 160 171 16 199 305 286
292 286 284 100 148 167 78 87 19 35 59 51 54 59 56 46 15 32 87 107 112 124 136 136 134 152 148 142 20 318 317 302 291 307 310 315 309 312 318 338 341 341 342 343 323 324 338 330 321
311 344 69 125 168 172 23 85 29 20 30 40 56 74 66 56 358 321 48 124 105 143 127 118 121 117 141 136 66 346 346 304 296 303 301 306 311 311 324 334 338 335 331 333 330 319 304 311 310
122 148 119 104 96 60 355 68 78 35 53 51 50 90 89 88 106 324 360 111 108 107 110 106 96 94 102 99 109 95 294 305 304 302 310 308 311 309 304 305 348 338 327 323 327 324 326 319 314
169 193 225 24 190 328 13 33 3 38 63 64 59 61 73 87 103 19 346 337 3 64 45 28 37 33 33 39 85 119 135 290 276 299 300 272 199 280 294 297 279 297 345 262 223 323 308 318 320
340 206 243 235 221 171 359 21 63 51 66 67 66 70 80 82 71 53 26 22 26 34 29 28 23 22 14 357 342 336 332 301 300 300 311 314 316 300 294 299 311 324 326 274 284 258 300 288 306
250 288 319 115 347 26 29 18 2 47 66 71 91 87 93 92 74 56 42 43 36 41 33 29 25 16 6 1 350 336 325 316 309 312 311 309 305 305 299 302 306 310 308 305 305 306 319 310 308
304 165 184 281 308 302 1 356 359 13 60 86 99 102 105 105 91 64 45 42 40 33 25 18 13 3 357 354 347 334 317 310 312 307 310 313 308 303 302 303 303 307 311 312 312 312 309 312 314
258 245 137 133 10 350 310 320 1 359 16 81 101 109 102 101 102 91 71 55 30 14 9 3 356 354 348 344 341 339 335 329 324 320 319 319 319 318 319 319 317 314 311 312 313 311 312 313 309